Showing default

BEIDOU 3M19, 44864

Orbit data source: Space-Track

BEIDOU 3M19, 44864 is a payload satellite owned by CNSA (CN) in MEO that was launched on Mon, 16 Dec 2019 UTC via a CHANG ZHENG 3B/YZ-1 launch vehicle from the Xichang Space Center, China (XSC). Payload-class satellites include a variety of spacecraft equipped with specific instruments for various scientific and technological missions. These include communications satellites like Starlink; space stations such as the ISS; scientific satellites like the Hubble; Earth observation satellites from companies like Planet Labs, Umbra, and HawkEye 360; GPS; miniature CubeSats for education and research; and military/defense satellites.

Loading next visibility...
Identifier
44864, 2019-090A
Orbit
MEO
Last TLE update
11 hours ago
Origin
Manufacturer
CAST
Mission
Operational Defense Navigation
Bus & Motor
BD-3M, Unknown motor
Mass
1,014 kg wet, ~850 kg dry
Launch date (UTC)
2019-12-16 (5 years ago)
Launch vehicle
CHANG ZHENG 3B/YZ-1
Launch site
Xichang Space Center, China (XSC)
Object type
Payload
Rocket body
Debris
Shape & HBR
Box + 2 Pan, Unknown HBR
Radar Cross Section
8.984 m², Large (>1 m²)

Expand to show TLE details & history

TLE from 11 hours ago
0 BEIDOU 3M19
1 44864U 19090A   25129.41124050 -.00000043  00000-0  00000+0 0  9998
2 44864  56.2041  76.1742 0019292 290.8091 251.8540  1.86231790 36714
Epoch: 2025-05-09T09:52Z
Definitive object data (Epoch: 2025-05-09T09:52:11.179Z)
Latitude
-2.11473°
Longitude
-117.94583°
Altitude
21,545.461 km
Speed
3.777 km/s
True Right ascension
17h 10m 16s
True Declination
-2° 06' 41"
Sunlit
Object was in daylight at TLE epoch
Visualization TLE readout
Latitude
39.1638°
Longitude
-152.35107°
Altitude
21,582.424 km
Speed
3.773 km/s
Apparent Right ascension
15h 16m 17s
Apparent Declination
27° 37' 00"
Sunlit
Object is in daylight
Visualization observer readout
Local Sidereal Time
05:04:47
Azimuth
25.119° NE
Elevation
-17.904°
Doppler factor
1
Orbital elements
Apogee altitude
21,581.769 km
Perigee altitude
21,474.097 km
Semi-major axis
27,906.07 km
Eccentricity
0.0019292
Inclination
56.2041°
RAAN
76.1742°
Arg. of periapsis
290.8091°
True anomaly
251.64408°
Mean anomaly
251.854°
Eccentric anomaly
251.74903°
Mean motion
0.46558 °/min
BSTAR
Unknown
Orbital period
773.23 mins
Loading maneuver chart data...
Loading SW <> Apogee altitude chart data...
Loading historical data...
Loading historical data...
Loading historical data...
Loading historical data...
Loading historical data...
Loading historical data...
Loading historical data...
Other satellites on launch #90 in the year 2019 (2019-12-16 UTC)

BEIDOU 3M19 Visibility forecast

Observer location: undefined°, undefined°

Span
Click to sort rows by Start time (UTC) header in descending order
Start Az.
Max El. time (UTC)
Max El. Az.
Max El.
End time (UTC)
End Az.
275 mins2025-05-10 07:38:34.483Z319.149° NNW2025-05-10 09:54:34.483Z279.555° WNW35.335°2025-05-10 12:13:34.483Z222.361° SW
210 mins2025-05-10 17:23:34.483Z134.544° SE2025-05-10 19:37:34.483Z79.269° E34.378°2025-05-10 20:53:34.483Z46.115° ENE
|